| time (UTC) | temp C | wind direction | speed KPH | gust KPH | rain 1hr cm | rain 24hr cm | rain mn cm | humidity % | barometer mb |
| 20260506201514 | 12 | 250 | 12.9 | 29.0 | 0.00 | 0.03 | 0.03 | 98 | 1008.0 |
| 20260506201005 | 12 | 257 | 6.4 | 19.3 | 0.00 | 0.03 | 0.03 | 98 | 1008.0 |
| 20260506200507 | 12 | 226 | 8.0 | 38.6 | 0.00 | 0.03 | 0.03 | 98 | 1008.1 |
| 20260506200022 | 12 | 248 | 12.9 | 38.6 | 0.03 | 0.03 | 0.03 | 98 | 1008.2 |
| 20260506200004 | 12 | 244 | 12.9 | 35.4 | 0.03 | 0.03 | 0.03 | 98 | 1008.9 |
| 20260506195504 | 12 | 228 | 12.9 | 27.4 | 0.03 | 0.03 | 0.03 | 98 | 1008.6 |
| 20260506195004 | 12 | 219 | 8.0 | 27.4 | 0.03 | 0.03 | 0.03 | 98 | 1008.8 |
| 20260506194534 | 12 | 226 | 8.0 | 35.4 | 0.03 | 0.03 | 0.03 | 98 | 1008.9 |
| 20260506194511 | 12 | 272 | 8.0 | 37.0 | 0.03 | 0.03 | 0.03 | 98 | 1009.4 |
| 20260506194007 | 12 | 236 | 12.9 | 35.4 | 0.03 | 0.03 | 0.03 | 98 | 1008.9 |
| 20260506193507 | 12 | 238 | 12.9 | 27.4 | 0.03 | 0.03 | 0.03 | 98 | 1008.9 |
| 20260506193022 | 12 | 222 | 12.9 | 29.0 | 0.03 | 0.03 | 0.03 | 98 | 1009.0 |
| 20260506192504 | 12 | 233 | 11.3 | 29.0 | 0.03 | 0.03 | 0.03 | 98 | 1009.2 |
| 20260506192004 | 12 | 210 | 11.3 | 30.6 | 0.03 | 0.03 | 0.03 | 98 | 1009.0 |
| 20260506191514 | 12 | 217 | 14.5 | 30.6 | 0.03 | 0.03 | 0.03 | 97 | 1009.0 |
| 20260506191006 | 12 | 236 | 12.9 | 33.8 | 0.03 | 0.03 | 0.03 | 97 | 1009.2 |
| 20260506190508 | 12 | 224 | 9.7 | 33.8 | 0.03 | 0.03 | 0.03 | 97 | 1009.1 |
| 20260506190010 | 12 | 272 | 12.9 | 27.4 | 0.00 | 0.00 | 0.00 | 97 | 1009.2 |
| 20260506190004 | 12 | 261 | 12.9 | 25.7 | 0.00 | 0.00 | 0.00 | 97 | 1009.8 |
| 20260506185503 | 12 | 244 | 8.0 | 27.4 | 0.00 | 0.00 | 0.00 | 96 | 1009.2 |
| 20260506185004 | 13 | 238 | 9.7 | 30.6 | 0.00 | 0.00 | 0.00 | 96 | 1009.4 |
| 20260506184518 | 13 | 214 | 11.3 | 30.6 | 0.00 | 0.00 | 0.00 | 96 | 1009.8 |
| 20260506184007 | 13 | 239 | 6.4 | 27.4 | 0.00 | 0.00 | 0.00 | 96 | 1009.7 |
| 20260506183508 | 13 | 221 | 9.7 | 27.4 | 0.00 | 0.00 | 0.00 | 95 | 1009.7 |
| 20260506183021 | 13 | 259 | 9.7 | 24.1 | 0.00 | 0.00 | 0.00 | 95 | 1009.8 |
| 20260506182507 | 13 | 225 | 8.0 | 22.5 | 0.00 | 0.00 | 0.00 | 95 | 1009.9 |
| 20260506182011 | 13 | 229 | 9.7 | 22.5 | 0.00 | 0.00 | 0.00 | 95 | 1009.9 |
| 20260506181528 | 13 | 214 | 11.3 | 27.4 | 0.00 | 0.00 | 0.00 | 94 | 1009.9 |
| 20260506181004 | 13 | 233 | 12.9 | 29.0 | 0.00 | 0.00 | 0.00 | 94 | 1010.1 |
| 20260506180506 | 13 | 207 | 9.7 | 29.0 | 0.00 | 0.00 | 0.00 | 94 | 1010.2 |
| 20260506180015 | 13 | 312 | 8.0 | 24.1 | 0.00 | 0.00 | 0.00 | 93 | 1010.3 |
| 20260506180002 | 13 | 307 | 8.0 | 25.7 | 0.00 | 0.00 | 0.00 | 94 | 1010.8 |
| 20260506175503 | 13 | 245 | 4.8 | 30.6 | 0.00 | 0.00 | 0.00 | 93 | 1010.5 |
| 20260506175007 | 13 | 236 | 6.4 | 30.6 | 0.00 | 0.00 | 0.00 | 93 | 1010.4 |
| 20260506174519 | 13 | 229 | 9.7 | 30.6 | 0.00 | 0.00 | 0.00 | 93 | 1010.2 |
| 20260506174008 | 13 | 169 | 14.5 | 29.0 | 0.00 | 0.00 | 0.00 | 93 | 1010.3 |
| 20260506173507 | 14 | 280 | 9.7 | 27.4 | 0.00 | 0.00 | 0.00 | 92 | 1010.5 |
| 20260506173026 | 14 | 264 | 11.3 | 27.4 | 0.00 | 0.00 | 0.00 | 92 | 1010.6 |
| 20260506172504 | 14 | 228 | 12.9 | 24.1 | 0.00 | 0.00 | 0.00 | 93 | 1010.6 |
| 20260506172005 | 14 | 240 | 8.0 | 33.8 | 0.00 | 0.00 | 0.00 | 92 | 1010.6 |
| 20260506171518 | 14 | 231 | 11.3 | 33.8 | 0.00 | 0.00 | 0.00 | 93 | 1010.7 |
| 20260506171003 | 14 | 257 | 9.7 | 27.4 | 0.00 | 0.00 | 0.00 | 92 | 1010.9 |
| 20260506170503 | 14 | 250 | 11.3 | 27.4 | 0.00 | 0.00 | 0.00 | 93 | 1010.9 |
| 20260506170012 | 14 | 264 | 8.0 | 24.1 | 0.00 | 0.00 | 0.00 | 92 | 1011.0 |
| 20260506170002 | 14 | 280 | 9.7 | 25.7 | 0.00 | 0.00 | 0.00 | 93 | 1011.5 |
| 20260506165506 | 14 | 248 | 9.7 | 24.1 | 0.00 | 0.00 | 0.00 | 92 | 1011.0 |
| 20260506165004 | 14 | 237 | 8.0 | 25.7 | 0.00 | 0.00 | 0.00 | 92 | 1011.2 |
| 20260506164520 | 15 | 256 | 9.7 | 25.7 | 0.00 | 0.00 | 0.00 | 91 | 1011.2 |
| 20260506164008 | 15 | 233 | 8.0 | 25.7 | 0.00 | 0.00 | 0.00 | 91 | 1011.2 |
| 20260506163507 | 15 | 269 | 9.7 | 24.1 | 0.00 | 0.00 | 0.00 | 91 | 1011.2 |
| 20260506163020 | 15 | 268 | 8.0 | 27.4 | 0.00 | 0.00 | 0.00 | 91 | 1011.2 |
| 20260506162503 | 15 | 193 | 11.3 | 27.4 | 0.00 | 0.00 | 0.00 | 91 | 1011.4 |
| 20260506162003 | 15 | 243 | 9.7 | 30.6 | 0.00 | 0.00 | 0.00 | 92 | 1011.3 |
| 20260506161512 | 15 | 207 | 14.5 | 35.4 | 0.00 | 0.00 | 0.00 | 91 | 1011.5 |
| 20260506161003 | 15 | 267 | 12.9 | 35.4 | 0.00 | 0.00 | 0.00 | 92 | 1011.6 |
| 20260506160504 | 15 | 255 | 9.7 | 27.4 | 0.00 | 0.00 | 0.00 | 93 | 1011.9 |
| 20260506160011 | 15 | 242 | 9.7 | 27.4 | 0.00 | 0.00 | 0.00 | 93 | 1011.7 |
| 20260506160007 | 15 | 244 | 9.7 | 29.0 | 0.00 | 0.00 | 0.00 | 93 | 1012.4 |
| 20260506155503 | 15 | 264 | 8.0 | 24.1 | 0.00 | 0.00 | 0.00 | 93 | 1011.9 |
| 20260506155003 | 14 | 235 | 11.3 | 24.1 | 0.00 | 0.00 | 0.00 | 93 | 1011.8 |
| 20260506154516 | 14 | 250 | 9.7 | 24.1 | 0.00 | 0.00 | 0.00 | 93 | 1011.8 |
| 20260506154007 | 14 | 266 | 6.4 | 27.4 | 0.00 | 0.00 | 0.00 | 93 | 1011.9 |
| 20260506153509 | 14 | 269 | 9.7 | 27.4 | 0.00 | 0.00 | 0.00 | 92 | 1012.0 |
| 20260506153008 | 15 | 248 | 8.0 | 27.4 | 0.00 | 0.00 | 0.00 | 92 | 1011.9 |
| 20260506152504 | 15 | 221 | 8.0 | 27.4 | 0.00 | 0.00 | 0.00 | 91 | 1012.0 |
| 20260506152007 | 15 | 274 | 12.9 | 27.4 | 0.00 | 0.00 | 0.00 | 91 | 1012.0 |
| 20260506151515 | 15 | 259 | 8.0 | 22.5 | 0.00 | 0.00 | 0.00 | 91 | 1012.1 |
| 20260506151009 | 15 | 263 | 6.4 | 27.4 | 0.00 | 0.00 | 0.00 | 91 | 1012.1 |
| 20260506150506 | 15 | 255 | 11.3 | 29.0 | 0.00 | 0.00 | 0.00 | 91 | 1012.0 |
| 20260506150010 | 15 | 259 | 14.5 | 29.0 | 0.00 | 0.00 | 0.00 | 91 | 1011.9 |
| 20260506150005 | 15 | 276 | 14.5 | 29.0 | 0.00 | 0.00 | 0.00 | 92 | 1012.6 |
| 20260506145504 | 15 | 225 | 11.3 | 27.4 | 0.00 | 0.00 | 0.00 | 92 | 1011.8 |
| 20260506145005 | 15 | 233 | 9.7 | 30.6 | 0.00 | 0.00 | 0.00 | 92 | 1011.9 |
| 20260506144512 | 15 | 261 | 11.3 | 30.6 | 0.00 | 0.00 | 0.00 | 92 | 1012.0 |
| 20260506144014 | 15 | 290 | 11.3 | 29.0 | 0.00 | 0.00 | 0.00 | 92 | 1012.2 |
| 20260506143505 | 15 | 250 | 11.3 | 29.0 | 0.00 | 0.00 | 0.00 | 92 | 1012.2 |
| 20260506143033 | 15 | 257 | 11.3 | 29.0 | 0.00 | 0.00 | 0.00 | 92 | 1012.2 |
| 20260506142504 | 15 | 216 | 12.9 | 30.6 | 0.00 | 0.00 | 0.00 | 92 | 1012.2 |
| 20260506142004 | 15 | 241 | 11.3 | 32.2 | 0.00 | 0.00 | 0.00 | 93 | 1012.2 |
| 20260506141514 | 15 | 198 | 11.3 | 33.8 | 0.00 | 0.00 | 0.00 | 93 | 1012.1 |
| 20260506141008 | 14 | 266 | 9.7 | 33.8 | 0.00 | 0.00 | 0.00 | 92 | 1011.9 |
| 20260506140505 | 15 | 245 | 12.9 | 29.0 | 0.00 | 0.00 | 0.00 | 92 | 1011.9 |
| 20260506140020 | 15 | 276 | 11.3 | 29.0 | 0.00 | 0.00 | 0.00 | 92 | 1011.9 |
| 20260506140001 | 15 | 228 | 11.3 | 30.6 | 0.00 | 0.00 | 0.00 | 93 | 1012.6 |
| 20260506135508 | 15 | 254 | 11.3 | 40.2 | 0.00 | 0.00 | 0.00 | 92 | 1012.0 |
| 20260506135008 | 15 | 231 | 14.5 | 40.2 | 0.00 | 0.00 | 0.00 | 92 | 1011.9 |
| 20260506134508 | 15 | 259 | 11.3 | 30.6 | 0.00 | 0.00 | 0.00 | 92 | 1011.8 |
| 20260506134003 | 15 | 225 | 6.4 | 30.6 | 0.00 | 0.00 | 0.00 | 91 | 1011.7 |
| 20260506133506 | 15 | 212 | 12.9 | 27.4 | 0.00 | 0.00 | 0.00 | 92 | 1011.7 |
| 20260506133012 | 15 | 237 | 12.9 | 27.4 | 0.00 | 0.00 | 0.00 | 92 | 1011.7 |
| 20260506132509 | 15 | 269 | 11.3 | 25.7 | 0.00 | 0.00 | 0.00 | 93 | 1011.8 |
| 20260506132009 | 15 | 337 | 12.9 | 30.6 | 0.00 | 0.00 | 0.00 | 92 | 1012.1 |
| 20260506131522 | 15 | 204 | 8.0 | 32.2 | 0.00 | 0.00 | 0.00 | 92 | 1012.1 |
| 20260506131008 | 15 | 262 | 9.7 | 32.2 | 0.00 | 0.00 | 0.00 | 92 | 1012.1 |
| 20260506130510 | 15 | 201 | 14.5 | 32.2 | 0.00 | 0.00 | 0.00 | 93 | 1012.1 |
| 20260506130022 | 15 | 252 | 12.9 | 35.4 | 0.00 | 0.00 | 0.00 | 93 | 1012.1 |
| 20260506130002 | 15 | 249 | 12.9 | 37.0 | 0.00 | 0.00 | 0.00 | 93 | 1012.7 |
| 20260506125507 | 15 | 269 | 8.0 | 35.4 | 0.00 | 0.00 | 0.00 | 93 | 1012.3 |
| 20260506125006 | 14 | 225 | 12.9 | 29.0 | 0.00 | 0.00 | 0.00 | 94 | 1012.2 |
| 20260506124524 | 14 | 262 | 9.7 | 30.6 | 0.00 | 0.00 | 0.00 | 94 | 1012.2 |
| 20260506124008 | 14 | 255 | 12.9 | 30.6 | 0.00 | 0.00 | 0.00 | 94 | 1012.2 |
| 20260506123504 | 14 | 274 | 11.3 | 27.4 | 0.00 | 0.00 | 0.00 | 95 | 1012.2 |
| 20260506123014 | 14 | 220 | 9.7 | 27.4 | 0.00 | 0.00 | 0.00 | 95 | 1012.2 |
| 20260506122504 | 14 | 214 | 8.0 | 27.4 | 0.00 | 0.00 | 0.00 | 96 | 1012.3 |
| 20260506122006 | 13 | 226 | 9.7 | 20.9 | 0.00 | 0.00 | 0.00 | 97 | 1012.1 |
| 20260506121515 | 13 | 278 | 6.4 | 22.5 | 0.00 | 0.00 | 0.00 | 97 | 1012.2 |
| 20260506121005 | 13 | 202 | 11.3 | 27.4 | 0.00 | 0.00 | 0.00 | 98 | 1012.3 |
| 20260506120510 | 13 | 276 | 12.9 | 27.4 | 0.00 | 0.00 | 0.00 | 98 | 1012.3 |
| 20260506120020 | 13 | 242 | 6.4 | 19.3 | 0.00 | 0.00 | 0.00 | 99 | 1012.3 |
| 20260506120006 | 13 | 240 | 6.4 | 17.7 | 0.00 | 0.00 | 0.00 | 99 | 1012.7 |
| 20260506115506 | 13 | 229 | 9.7 | 19.3 | 0.00 | 0.00 | 0.00 | 99 | 1012.2 |
| 20260506115010 | 13 | 282 | 6.4 | 17.7 | 0.00 | 0.00 | 0.00 | 99 | 1012.1 |
| 20260506114532 | 12 | 278 | 8.0 | 17.7 | 0.00 | 0.00 | 0.00 | 99 | 1012.2 |
| 20260506114006 | 12 | 249 | 6.4 | 17.7 | 0.00 | 0.00 | 0.00 | 99 | 1012.2 |
| 20260506113509 | 12 | 299 | 6.4 | 22.5 | 0.00 | 0.00 | 0.00 | 100 | 1012.2 |
| 20260506113016 | 12 | 241 | 6.4 | 30.6 | 0.00 | 0.00 | 0.00 | 100 | 1012.3 |
| 20260506112507 | 12 | 269 | 11.3 | 30.6 | 0.00 | 0.00 | 0.00 | 100 | 1012.2 |
| 20260506112007 | 12 | 288 | 8.0 | 27.4 | 0.00 | 0.00 | 0.00 | 100 | 1012.2 |
| 20260506111512 | 12 | 258 | 6.4 | 27.4 | 0.00 | 0.00 | 0.00 | 100 | 1012.3 |
| 20260506111006 | 12 | 283 | 8.0 | 20.9 | 0.00 | 0.00 | 0.00 | 100 | 1012.3 |
| 20260506110506 | 12 | 252 | 9.7 | 20.9 | 0.00 | 0.00 | 0.00 | 100 | 1012.4 |
| 20260506110018 | 12 | 250 | 6.4 | 25.7 | 0.00 | 0.00 | 0.00 | 100 | 1012.3 |
| 20260506110006 | 12 | 247 | 6.4 | 25.7 | 0.00 | 0.00 | 0.00 | 100 | 1013.1 |
| 20260506105508 | 11 | 226 | 11.3 | 25.7 | 0.00 | 0.00 | 0.00 | 100 | 1012.3 |
| 20260506105012 | 11 | 286 | 8.0 | 27.4 | 0.00 | 0.00 | 0.00 | 100 | 1012.4 |
| 20260506104522 | 11 | 224 | 9.7 | 27.4 | 0.00 | 0.00 | 0.00 | 100 | 1012.3 |
| 20260506104003 | 11 | 205 | 8.0 | 17.7 | 0.00 | 0.00 | 0.00 | 100 | 1012.3 |
| 20260506103505 | 11 | 236 | 6.4 | 20.9 | 0.00 | 0.00 | 0.00 | 100 | 1012.3 |
| 20260506103018 | 11 | 183 | 8.0 | 20.9 | 0.00 | 0.00 | 0.00 | 100 | 1012.2 |
| 20260506102507 | 11 | 202 | 8.0 | 19.3 | 0.00 | 0.00 | 0.00 | 100 | 1012.2 |
| 20260506102010 | 11 | 264 | 9.7 | 19.3 | 0.00 | 0.00 | 0.00 | 100 | 1012.2 |
| 20260506101543 | 11 | 214 | 6.4 | 22.5 | 0.00 | 0.00 | 0.00 | 100 | 1012.0 |
| 20260506101010 | 11 | 241 | 8.0 | 22.5 | 0.00 | 0.00 | 0.00 | 100 | 1012.0 |
| 20260506100504 | 11 | 254 | 8.0 | 22.5 | 0.00 | 0.00 | 0.00 | 100 | 1011.9 |
| 20260506100014 | 11 | 247 | 6.4 | 22.5 | 0.00 | 0.00 | 0.00 | 100 | 1012.1 |
| 20260506100002 | 11 | 244 | 6.4 | 24.1 | 0.00 | 0.00 | 0.00 | 100 | 1012.7 |
| 20260506095506 | 11 | 270 | 8.0 | 25.7 | 0.00 | 0.00 | 0.00 | 100 | 1012.1 |
| 20260506095008 | 11 | 220 | 4.8 | 25.7 | 0.00 | 0.00 | 0.00 | 100 | 1012.1 |
| 20260506094517 | 11 | 251 | 9.7 | 20.9 | 0.00 | 0.00 | 0.00 | 100 | 1012.1 |
| 20260506094006 | 11 | 264 | 9.7 | 20.9 | 0.00 | 0.00 | 0.00 | 100 | 1012.2 |
| 20260506093507 | 11 | 264 | 6.4 | 19.3 | 0.00 | 0.00 | 0.00 | 99 | 1012.2 |
| 20260506093023 | 11 | 248 | 3.2 | 19.3 | 0.00 | 0.00 | 0.00 | 99 | 1012.2 |
| 20260506092508 | 11 | 243 | 4.8 | 19.3 | 0.00 | 0.00 | 0.00 | 100 | 1012.2 |
| 20260506092010 | 11 | 249 | 8.0 | 16.1 | 0.00 | 0.00 | 0.00 | 99 | 1012.1 |
| 20260506091525 | 11 | 233 | 6.4 | 16.1 | 0.00 | 0.00 | 0.00 | 99 | 1012.3 |
| 20260506091010 | 11 | 276 | 6.4 | 20.9 | 0.00 | 0.00 | 0.00 | 99 | 1012.3 |
| 20260506090512 | 11 | 245 | 6.4 | 22.5 | 0.00 | 0.00 | 0.00 | 99 | 1012.4 |
| 20260506090026 | 11 | 290 | 9.7 | 22.5 | 0.00 | 0.00 | 0.00 | 99 | 1012.4 |
| 20260506090001 | 11 | 286 | 9.7 | 24.1 | 0.00 | 0.00 | 0.00 | 100 | 1013.0 |
| 20260506085509 | 11 | 247 | 6.4 | 22.5 | 0.00 | 0.00 | 0.00 | 99 | 1012.5 |
| 20260506085004 | 11 | 210 | 4.8 | 22.5 | 0.00 | 0.00 | 0.00 | 99 | 1012.6 |
| 20260506084519 | 12 | 231 | 8.0 | 22.5 | 0.00 | 0.00 | 0.00 | 99 | 1012.6 |
| 20260506084007 | 12 | 235 | 8.0 | 20.9 | 0.00 | 0.00 | 0.00 | 99 | 1012.5 |
| 20260506083506 | 12 | 248 | 12.9 | 22.5 | 0.00 | 0.00 | 0.00 | 99 | 1012.6 |
| 20260506083020 | 12 | 237 | 4.8 | 24.1 | 0.00 | 0.00 | 0.00 | 99 | 1012.6 |
| 20260506082507 | 12 | 257 | 3.2 | 24.1 | 0.00 | 0.00 | 0.00 | 99 | 1012.6 |
| 20260506082012 | 12 | 262 | 9.7 | 24.1 | 0.00 | 0.00 | 0.00 | 99 | 1012.6 |
| 20260506081526 | 12 | 223 | 6.4 | 22.5 | 0.00 | 0.00 | 0.00 | 99 | 1012.6 |
| 20260506081011 | 12 | 271 | 11.3 | 29.0 | 0.00 | 0.00 | 0.00 | 99 | 1012.5 |
| 20260506080516 | 12 | 233 | 12.9 | 29.0 | 0.00 | 0.00 | 0.00 | 99 | 1012.5 |
| 20260506073508 | 12 | 259 | 8.0 | 20.9 | 0.00 | 0.00 | 0.00 | 99 | 1012.8 |
| 20260506073020 | 12 | 213 | 6.4 | 20.9 | 0.00 | 0.00 | 0.00 | 99 | 1012.7 |
| 20260506072515 | 12 | 248 | 8.0 | 19.3 | 0.00 | 0.00 | 0.00 | 99 | 1012.7 |
| 20260506072008 | 12 | 236 | 6.4 | 24.1 | 0.00 | 0.00 | 0.00 | 99 | 1012.8 |
| 20260506071522 | 12 | 290 | 8.0 | 33.8 | 0.00 | 0.00 | 0.00 | 99 | 1012.6 |
| 20260506071011 | 12 | 275 | 8.0 | 33.8 | 0.00 | 0.00 | 0.00 | 99 | 1012.6 |
| 20260506070508 | 12 | 281 | 8.0 | 25.7 | 0.00 | 0.00 | 0.00 | 99 | 1012.7 |
| 20260506062511 | 12 | 231 | 8.0 | 22.5 | 0.00 | 0.00 | 0.00 | 98 | 1012.5 |
| 20260506062009 | 12 | 270 | 8.0 | 22.5 | 0.00 | 0.00 | 0.00 | 98 | 1012.6 |
| 20260506061521 | 12 | 271 | 8.0 | 20.9 | 0.00 | 0.00 | 0.00 | 98 | 1012.6 |
| 20260506061011 | 12 | 261 | 9.7 | 20.9 | 0.00 | 0.00 | 0.00 | 98 | 1012.6 |
| 20260506060508 | 12 | 248 | 6.4 | 25.7 | 0.00 | 0.00 | 0.00 | 98 | 1012.6 |
| 20260506051012 | 12 | 186 | 12.9 | 27.4 | 0.00 | 0.00 | 0.00 | 97 | 1013.0 |
| 20260506050512 | 12 | 245 | 9.7 | 24.1 | 0.00 | 0.00 | 0.00 | 97 | 1013.0 |
| 20260506045007 | 12 | 231 | 9.7 | 32.2 | 0.00 | 0.00 | 0.00 | 98 | 1013.0 |
| 20260506044526 | 12 | 228 | 16.1 | 32.2 | 0.00 | 0.00 | 0.00 | 98 | 1013.0 |
| 20260506044011 | 12 | 224 | 9.7 | 27.4 | 0.00 | 0.00 | 0.00 | 98 | 1013.0 |
| 20260506043507 | 12 | 212 | 9.7 | 25.7 | 0.00 | 0.00 | 0.00 | 98 | 1013.0 |
| 20260506043027 | 12 | 215 | 12.9 | 29.0 | 0.00 | 0.00 | 0.00 | 97 | 1013.0 |
| 20260506043004 | 12 | 214 | 12.9 | 29.0 | 0.00 | 0.00 | 0.00 | 98 | 1013.6 |
| 20260506042511 | 12 | 251 | 9.7 | 29.0 | 0.00 | 0.00 | 0.00 | 97 | 1013.1 |
| 20260506042019 | 12 | 231 | 14.5 | 22.5 | 0.00 | 0.00 | 0.00 | 97 | 1013.1 |
| 20260506041532 | 12 | 229 | 11.3 | 22.5 | 0.00 | 0.00 | 0.00 | 97 | 1013.0 |
| 20260506041503 | 12 | 227 | 11.3 | 24.1 | 0.00 | 0.00 | 0.00 | 98 | 1013.6 |
| 20260506041012 | 12 | 214 | 11.3 | 24.1 | 0.00 | 0.00 | 0.00 | 97 | 1013.0 |
| 20260506040518 | 12 | 197 | 9.7 | 24.1 | 0.00 | 0.00 | 0.00 | 97 | 1013.2 |
| 20260506040031 | 12 | 248 | 8.0 | 24.1 | 0.00 | 0.00 | 0.00 | 97 | 1013.2 |
| 20260506040007 | 12 | 219 | 8.0 | 25.7 | 0.00 | 0.00 | 0.00 | 97 | 1013.8 |
| 20260506035507 | 12 | 202 | 9.7 | 27.4 | 0.00 | 0.00 | 0.00 | 97 | 1013.1 |
| 20260506035007 | 12 | 236 | 11.3 | 27.4 | 0.00 | 0.00 | 0.00 | 97 | 1013.1 |
| 20260506034523 | 12 | 229 | 8.0 | 27.4 | 0.00 | 0.00 | 0.00 | 97 | 1013.1 |
| 20260506034504 | 12 | 227 | 8.0 | 29.0 | 0.00 | 0.00 | 0.00 | 97 | 1013.7 |
| 20260506034008 | 12 | 234 | 9.7 | 30.6 | 0.00 | 0.00 | 0.00 | 97 | 1013.0 |
| 20260506033511 | 12 | 272 | 11.3 | 30.6 | 0.00 | 0.00 | 0.00 | 97 | 1013.1 |
| 20260506033030 | 12 | 226 | 9.7 | 29.0 | 0.00 | 0.00 | 0.00 | 97 | 1013.0 |
| 20260506033006 | 12 | 225 | 9.7 | 27.4 | 0.00 | 0.00 | 0.00 | 97 | 1013.7 |
| 20260506032518 | 12 | 236 | 6.4 | 24.1 | 0.00 | 0.00 | 0.00 | 97 | 1013.0 |
| 20260506032009 | 12 | 207 | 8.0 | 25.7 | 0.00 | 0.00 | 0.00 | 96 | 1013.1 |
| 20260506031529 | 12 | 246 | 11.3 | 25.7 | 0.00 | 0.00 | 0.00 | 96 | 1013.1 |
| 20260506031011 | 12 | 232 | 11.3 | 24.1 | 0.00 | 0.00 | 0.00 | 96 | 1013.0 |
| 20260506030513 | 12 | 197 | 8.0 | 33.8 | 0.00 | 0.00 | 0.00 | 96 | 1013.1 |
| 20260506030031 | 12 | 200 | 14.5 | 33.8 | 0.00 | 0.00 | 0.00 | 96 | 1013.2 |
| 20260506030004 | 12 | 194 | 16.1 | 35.4 | 0.00 | 0.00 | 0.00 | 97 | 1013.6 |
| 20260506025506 | 12 | 241 | 9.7 | 25.7 | 0.00 | 0.00 | 0.00 | 96 | 1013.0 |
| 20260506025010 | 12 | 212 | 8.0 | 25.7 | 0.00 | 0.00 | 0.00 | 96 | 1013.0 |
| 20260506024524 | 12 | 238 | 9.7 | 25.7 | 0.00 | 0.00 | 0.00 | 95 | 1013.0 |
| 20260506024009 | 12 | 260 | 6.4 | 22.5 | 0.00 | 0.00 | 0.00 | 95 | 1013.1 |
| 20260506023507 | 12 | 288 | 11.3 | 24.1 | 0.00 | 0.00 | 0.00 | 96 | 1013.1 |
| 20260506023023 | 12 | 196 | 8.0 | 24.1 | 0.00 | 0.00 | 0.00 | 95 | 1013.0 |
| 20260506022505 | 12 | 282 | 9.7 | 27.4 | 0.00 | 0.00 | 0.00 | 95 | 1013.0 |
| 20260506022010 | 12 | 295 | 12.9 | 27.4 | 0.00 | 0.00 | 0.00 | 95 | 1012.9 |
| 20260506021527 | 12 | 250 | 11.3 | 27.4 | 0.00 | 0.00 | 0.00 | 95 | 1012.9 |
| 20260506021008 | 12 | 240 | 6.4 | 27.4 | 0.00 | 0.00 | 0.00 | 95 | 1012.9 |
| 20260506020512 | 12 | 270 | 8.0 | 32.2 | 0.00 | 0.00 | 0.00 | 94 | 1012.8 |
| 20260506020028 | 12 | 313 | 11.3 | 32.2 | 0.00 | 0.00 | 0.00 | 94 | 1012.9 |
| 20260506020005 | 12 | 308 | 11.3 | 33.8 | 0.00 | 0.00 | 0.00 | 95 | 1013.6 |
| 20260506015508 | 12 | 271 | 9.7 | 25.7 | 0.00 | 0.00 | 0.00 | 94 | 1012.8 |
| 20260506015011 | 12 | 296 | 9.7 | 25.7 | 0.00 | 0.00 | 0.00 | 94 | 1012.8 |
| 20260506014533 | 12 | 246 | 12.9 | 27.4 | 0.00 | 0.00 | 0.00 | 94 | 1012.8 |
| 20260506014010 | 12 | 217 | 12.9 | 27.4 | 0.00 | 0.00 | 0.00 | 94 | 1012.8 |
| 20260506013511 | 12 | 264 | 9.7 | 24.1 | 0.00 | 0.00 | 0.00 | 94 | 1012.7 |
| 20260506013030 | 12 | 240 | 9.7 | 29.0 | 0.00 | 0.00 | 0.00 | 93 | 1012.7 |
| 20260506013002 | 12 | 238 | 9.7 | 30.6 | 0.00 | 0.00 | 0.00 | 94 | 1013.3 |
| 20260506012509 | 12 | 240 | 9.7 | 32.2 | 0.00 | 0.00 | 0.00 | 93 | 1012.5 |
| 20260506012009 | 12 | 255 | 14.5 | 32.2 | 0.00 | 0.00 | 0.00 | 93 | 1012.4 |
| 20260506011525 | 12 | 207 | 14.5 | 27.4 | 0.00 | 0.00 | 0.00 | 94 | 1012.4 |
| 20260506011008 | 12 | 261 | 11.3 | 25.7 | 0.00 | 0.00 | 0.00 | 93 | 1012.3 |
| 20260506010510 | 12 | 238 | 11.3 | 32.2 | 0.00 | 0.00 | 0.00 | 93 | 1012.4 |
| 20260506010028 | 12 | 237 | 12.9 | 32.2 | 0.00 | 0.00 | 0.00 | 93 | 1012.3 |
| 20260506010003 | 12 | 239 | 12.9 | 33.8 | 0.00 | 0.00 | 0.00 | 94 | 1013.0 |
| 20260506005507 | 12 | 254 | 8.0 | 24.1 | 0.00 | 0.00 | 0.00 | 93 | 1012.3 |
| 20260506005012 | 12 | 222 | 8.0 | 25.7 | 0.00 | 0.00 | 0.00 | 93 | 1012.1 |
| 20260506004536 | 12 | 251 | 9.7 | 27.4 | 0.00 | 0.00 | 0.00 | 93 | 1012.1 |
| 20260506004010 | 12 | 270 | 8.0 | 29.0 | 0.00 | 0.00 | 0.00 | 93 | 1012.0 |
| 20260506003511 | 12 | 239 | 11.3 | 33.8 | 0.00 | 0.00 | 0.00 | 92 | 1011.8 |
| 20260506003026 | 12 | 243 | 11.3 | 33.8 | 0.00 | 0.00 | 0.00 | 92 | 1011.7 |
| 20260506002511 | 12 | 196 | 11.3 | 32.2 | 0.00 | 0.00 | 0.00 | 92 | 1011.7 |
| 20260506002010 | 12 | 205 | 12.9 | 32.2 | 0.00 | 0.00 | 0.00 | 92 | 1011.6 |
| 20260506001527 | 12 | 192 | 9.7 | 30.6 | 0.00 | 0.00 | 0.00 | 92 | 1011.7 |
| 20260506001010 | 12 | 219 | 8.0 | 30.6 | 0.00 | 0.00 | 0.00 | 92 | 1011.6 |
| 20260506000511 | 12 | 246 | 11.3 | 29.0 | 0.00 | 0.00 | 0.00 | 92 | 1011.6 |
| 20260506000034 | 12 | 264 | 12.9 | 30.6 | 0.00 | 0.00 | 0.00 | 92 | 1011.6 |
| 20260506000003 | 12 | 194 | 12.9 | 32.2 | 0.00 | 0.00 | 0.00 | 93 | 1012.1 |
| 20260505235511 | 12 | 257 | 9.7 | 32.2 | 0.00 | 0.00 | 0.00 | 92 | 1011.5 |
| 20260505235007 | 12 | 249 | 11.3 | 32.2 | 0.00 | 0.00 | 0.00 | 92 | 1011.3 |
| 20260505234528 | 12 | 281 | 12.9 | 32.2 | 0.00 | 0.00 | 0.00 | 92 | 1011.3 |
| 20260505234006 | 12 | 254 | 8.0 | 30.6 | 0.00 | 0.00 | 0.00 | 92 | 1011.3 |
| 20260505233513 | 12 | 191 | 11.3 | 35.4 | 0.00 | 0.00 | 0.00 | 92 | 1011.2 |
| 20260505233026 | 12 | 226 | 12.9 | 35.4 | 0.00 | 0.00 | 0.00 | 92 | 1011.2 |
| 20260505232512 | 13 | 200 | 14.5 | 32.2 | 0.00 | 0.00 | 0.00 | 92 | 1011.3 |
| 20260505232010 | 13 | 266 | 11.3 | 24.1 | 0.00 | 0.00 | 0.00 | 92 | 1011.1 |
| 20260505231527 | 13 | 210 | 9.7 | 40.2 | 0.00 | 0.00 | 0.00 | 92 | 1011.0 |
| 20260505231010 | 13 | 197 | 11.3 | 40.2 | 0.00 | 0.00 | 0.00 | 92 | 1010.9 |
| 20260505230511 | 13 | 239 | 14.5 | 37.0 | 0.00 | 0.00 | 0.00 | 91 | 1011.0 |
| 20260505230032 | 13 | 243 | 11.3 | 29.0 | 0.00 | 0.00 | 0.00 | 91 | 1010.9 |
| 20260505230008 | 13 | 210 | 12.9 | 30.6 | 0.00 | 0.00 | 0.00 | 92 | 1011.5 |
| 20260505225506 | 13 | 207 | 14.5 | 29.0 | 0.00 | 0.00 | 0.00 | 91 | 1010.8 |
| 20260505225007 | 13 | 290 | 8.0 | 40.2 | 0.00 | 0.00 | 0.00 | 91 | 1010.9 |
| 20260505224536 | 13 | 274 | 14.5 | 40.2 | 0.00 | 0.00 | 0.00 | 91 | 1010.8 |
| 20260505224012 | 13 | 230 | 11.3 | 29.0 | 0.00 | 0.00 | 0.00 | 91 | 1010.8 |
| 20260505223514 | 13 | 259 | 14.5 | 35.4 | 0.00 | 0.00 | 0.00 | 91 | 1010.7 |
| 20260505223041 | 13 | 229 | 12.9 | 35.4 | 0.00 | 0.00 | 0.00 | 91 | 1010.7 |
| 20260505222504 | 13 | 222 | 8.0 | 41.8 | 0.00 | 0.00 | 0.00 | 91 | 1010.6 |
| 20260505222009 | 13 | 264 | 12.9 | 41.8 | 0.00 | 0.00 | 0.00 | 90 | 1010.5 |
| 20260505221519 | 14 | 225 | 11.3 | 30.6 | 0.00 | 0.00 | 0.00 | 91 | 1010.5 |
| 20260505221004 | 14 | 202 | 16.1 | 32.2 | 0.00 | 0.00 | 0.00 | 91 | 1010.5 |
| 20260505220503 | 14 | 248 | 12.9 | 32.2 | 0.00 | 0.00 | 0.00 | 91 | 1010.5 |
| 20260505220022 | 14 | 312 | 14.5 | 40.2 | 0.00 | 0.00 | 0.00 | 90 | 1010.6 |
| 20260505220003 | 14 | 271 | 16.1 | 41.8 | 0.00 | 0.00 | 0.00 | 91 | 1011.1 |
| 20260505215505 | 14 | 252 | 16.1 | 40.2 | 0.00 | 0.00 | 0.00 | 90 | 1010.6 |
| 20260505215007 | 14 | 215 | 8.0 | 32.2 | 0.00 | 0.00 | 0.00 | 90 | 1010.6 |
| 20260505214512 | 14 | 262 | 6.4 | 30.6 | 0.00 | 0.00 | 0.00 | 90 | 1010.6 |
| 20260505214006 | 15 | 243 | 11.3 | 29.0 | 0.00 | 0.00 | 0.00 | 90 | 1010.5 |
| 20260505213504 | 15 | 248 | 9.7 | 29.0 | 0.00 | 0.00 | 0.00 | 90 | 1010.4 |
| 20260505213012 | 15 | 241 | 14.5 | 29.0 | 0.00 | 0.00 | 0.00 | 90 | 1010.5 |
| 20260505212504 | 15 | 197 | 8.0 | 20.9 | 0.00 | 0.00 | 0.00 | 90 | 1010.6 |
| 20260505212004 | 15 | 261 | 8.0 | 22.5 | 0.00 | 0.00 | 0.00 | 90 | 1010.5 |
| 20260505211516 | 14 | 259 | 8.0 | 22.5 | 0.00 | 0.00 | 0.00 | 90 | 1010.5 |
| 20260505211007 | 14 | 248 | 8.0 | 37.0 | 0.00 | 0.00 | 0.00 | 90 | 1010.6 |
| 20260505210505 | 15 | 240 | 16.1 | 37.0 | 0.00 | 0.00 | 0.00 | 90 | 1010.6 |
| 20260505210010 | 15 | 198 | 9.7 | 29.0 | 0.00 | 0.00 | 0.00 | 90 | 1010.6 |
| 20260505210003 | 15 | 194 | 9.7 | 29.0 | 0.00 | 0.00 | 0.00 | 91 | 1010.9 |
| 20260505205509 | 15 | 242 | 9.7 | 29.0 | 0.00 | 0.00 | 0.00 | 90 | 1010.5 |
| 20260505205006 | 15 | 207 | 11.3 | 30.6 | 0.00 | 0.00 | 0.00 | 90 | 1010.4 |
| 20260505204525 | 15 | 210 | 11.3 | 30.6 | 0.00 | 0.00 | 0.00 | 90 | 1010.8 |
| 20260505204007 | 15 | 177 | 11.3 | 27.4 | 0.00 | 0.00 | 0.00 | 90 | 1010.7 |
| 20260505203503 | 15 | 252 | 9.7 | 27.4 | 0.00 | 0.00 | 0.00 | 90 | 1010.6 |
| 20260505203008 | 15 | 241 | 9.7 | 29.0 | 0.00 | 0.00 | 0.00 | 90 | 1010.4 |
| 20260505202503 | 15 | 204 | 17.7 | 30.6 | 0.00 | 0.00 | 0.00 | 90 | 1010.5 |
| 20260505202006 | 15 | 238 | 11.3 | 37.0 | 0.00 | 0.00 | 0.00 | 90 | 1010.6 |